Regional Weather Roundup
Issued by NWS

Home | Current Version | Previous Version | Text Only | Print | Product List | Glossary Off
Versions: 1 2 3 4 5 6 7 8 9 10 11 12 13 14 15 16 17 18 19 20 21 22 23 24 25 26 27 28 29 30 31 32 33 34 35 36 37 38 39 40 41 42 43 44 45 46 47 48 49 50

000
ASUS43 KFSD 292110
RWRSD

WEATHER ROUNDUP FOR SOUTH DAKOTA
NATIONAL WEATHER SERVICE SIOUX FALLS SD
400 PM CDT MON JUN 29 2015

NOTE: "FAIR" INDICATES FEW OR NO CLOUDS BELOW 12,000 FEET WITH NO
SIGNIFICANT WEATHER AND/OR OBSTRUCTIONS TO VISIBILITY.


SDZ001>005-009-010-012>017-292200-
NORTHWEST AND NORTH CENTRAL SOUTH DAKOTA

CITY           SKY/WX    TMP DP  RH WIND       PRES   REMARKS
BUFFALO          N/A     92  57  30 W13       29.98F
FAITH            N/A     90  58  33 VRB5      30.01F
MOBRIDGE       SUNNY     94  55  26 NW9       29.92F
$$

SDZ012>016-024>037-041>051-057-063-072>074-292200-
SOUTHWEST AND SOUTH CENTRAL SOUTH DAKOTA

CITY           SKY/WX    TMP DP  RH WIND       PRES   REMARKS
RAPID CTY ARPT SUNNY     89  55  31 VRB6      30.07F
PIERRE         SUNNY     90  59  35 NW13      29.95F
CUSTER         MOSUNNY   77  57  50 E9        30.23F
ELLSWORTH AFB  SUNNY     88  55  33 NE8       30.07F
PHILIP         SUNNY     92  62  36 NW3       30.00F
PINE RIDGE     SUNNY     87  58  37 W10       30.08F
SPEARFISH      FAIR      84  63  48 NE5       30.13F
WINNER         FAIR      93  49  22 NW14      29.98F
$$

SDZ004>011-016>023-039-040-292200-
NORTHEAST SOUTH DAKOTA

CITY           SKY/WX    TMP DP  RH WIND       PRES   REMARKS
ABERDEEN       SUNNY     88  60  38 NW12      29.90F
WATERTOWN      SUNNY     81  61  50 NW10      29.91F
BROOKINGS      SUNNY     81  61  50 NW10      29.93F
SISSETON         N/A     82  60  47 NW15      29.86F
$$

SDZ017-020-022-023-036>040-048>070-292200-
SOUTHEAST SOUTH DAKOTA

CITY           SKY/WX    TMP DP  RH WIND       PRES   REMARKS
SIOUX FALLS    SUNNY     82  57  42 NW14      29.92F HAZE
HURON          SUNNY     86  62  44 N8        29.91F
CHAMBERLAIN    SUNNY     90  56  31 NW10G20   29.95S
MITCHELL       SUNNY     86  60  41 N7        29.93F
YANKTON        SUNNY     84  57  39 N10       29.92F
$$

ABBREVIATIONS USED IN REMARKS
   TC - TEMPERATURE IN CELSIUS
  WCI - WIND CHILL INDEX
   HX - HEAT INDEX
  VSB - VISIBILITY




USA.gov is the U.S. government's official web portal to all federal, state and local government web resources and services.